Погода в Новоалексеевском

Россия / Республика Адыгея     44°55′47″N   40°22′01″E
темп.,
°C
ветер,
м/с
пор.,
м/с
влажн.,
%
обл.,
%
осадки,
мм/ч
давл.,
гПа
погр.,
м
21 января, чт
чт2100:00−10ююз128828 0.0 102921
03:00−10вюв008714 0.0 103021
06:00−10в23880 0.0 103121
09:00−8юв238629 0.0 103259
12:00−2вюв23760 0.0 1032189
15:000вюв34830 0.0 1030171
18:00−3юв23806 0.0 103122
21:00−3ю22807 0.0 103121
22 января, пт
пт2200:00−3ю238449 0.0 103123
03:00−3ю238125 0.0 103125
06:00−3ююв22780 0.0 103021
09:00−2юв23770 0.0 103023
12:00+1вюв22940 0.0 103089
15:00+2вюв22870 0.0 102835
18:000вюв23740 0.0 102822
21:00−1юв23710 0.0 102821
23 января, сб
сб2300:00−1ююв22700 0.0 102822
03:00−1ююв22765 0.0 102722
06:00−1юв237428 0.0 102722
09:000юв127420 0.0 102722
12:00+3юв11930 0.0 102530
15:00+4вюв228311 0.0 102423
18:00+2вюв237199 0.0 102422
21:00+1юв236876 0.0 102422
24 января, вс
вс2400:00+1вюв23680 0.0 102422
03:00+1юв33700 0.0 102326
06:00+1вюв346716 0.0 102138
09:00+2вюв346756 0.0 102167
12:00+5в3673100 0.0 1020109
15:00+5в3474100 0.0 101870
18:00+3вюв3471100 0.0 101930
21:00+3ююв2268100 0.0 101922
25 января, пн
пн2500:00+2зюз1272100 0.0 101822
03:00+2ююв1173100 0.0 101922
06:00+2вюв2370100 0.0 101922
09:00+3вюв2368100 0.0 101929
12:00+7вюв246975 0.0 1018144
15:00+7в347167 0.0 101689
18:00+4в4570100 0.0 101655
21:00+4вюв4470100 0.0 101657